W5NEM Weather Reports


Display with metric or nautical units.
time (UTC)temp
F
wind
direction
speed
MPH
gust
MPH
rain 1hr
in
rain 24hr
in
rain mn
in
humidity
%
barometer
mb
20260906120005 74 174 0.0 0.0 0.00 0.00 0.00 97 1012.9
20260906114005 74 182 2.0 2.0 0.00 0.00 0.00 97 1012.9
20260906113005 74 155 1.0 3.0 0.00 0.00 0.00 97 1012.7
20260906112005 75 219 0.0 0.0 0.00 0.00 0.00 97 1012.4
20260906110005 75 219 0.0 0.0 0.00 0.00 0.00 97 1012.2
20260906105005 75 219 0.0 2.0 0.00 0.00 0.00 97 1012.0
20260906104005 75 203 1.0 2.0 0.00 0.00 0.00 97 1012.0
20260906103005 75 265 0.0 2.0 0.00 0.00 0.00 97 1011.9
20260906102006 74 305 1.0 3.0 0.00 0.00 0.00 97 1011.8
20260906101005 75 305 2.0 5.0 0.00 0.00 0.00 97 1011.7
20260906100005 74 276 1.0 6.0 0.00 0.00 0.00 98 1011.6
20260906094004 75 16 0.0 0.0 0.00 0.00 0.00 96 1011.5
20260906093005 76 16 0.0 0.0 0.00 0.00 0.00 96 1011.4
20260906092005 77 16 0.0 0.0 0.00 0.00 0.00 94 1011.1
20260906091005 76 16 0.0 0.0 0.00 0.00 0.00 94 1011.0
20260906090005 76 16 0.0 0.0 0.00 0.00 0.00 95 1011.0
20260906085005 77 16 0.0 0.0 0.00 0.00 0.00 94 1011.0
20260906084005 77 16 0.0 0.0 0.00 0.00 0.00 94 1011.1
20260906083005 77 16 0.0 0.0 0.00 0.00 0.00 94 1011.1
20260906082005 77 16 0.0 0.0 0.00 0.00 0.00 93 1011.2
20260906080005 78 16 0.0 1.0 0.00 0.00 0.00 90 1011.4
20260906073005 77 292 1.0 5.0 0.00 0.00 0.00 93 1011.6
20260906072005 77 302 2.0 3.0 0.00 0.00 0.00 92 1011.5
20260906064005 79 356 1.0 2.0 0.00 0.00 0.00 89 1011.3
20260906063005 79 27 0.0 0.0 0.00 0.00 0.00 87 1011.3
20260906061005 80 27 0.0 1.0 0.00 0.00 0.00 84 1011.1
20260906055004 80 28 1.0 3.0 0.00 0.00 0.00 84 1011.2
20260906054005 80 24 1.0 2.0 0.00 0.00 0.00 83 1011.2
20260906053005 80 20 0.0 2.0 0.00 0.00 0.00 84 1011.4
20260906052005 80 25 1.0 3.0 0.00 0.00 0.00 83 1011.4
20260906051005 80 323 1.0 3.0 0.00 0.00 0.00 83 1011.5
20260906050004 81 310 2.0 2.0 0.00 0.00 0.00 82 1011.5
20260906045004 81 272 0.0 3.0 0.00 0.00 0.00 82 1011.5
20260906044005 82 284 0.0 0.0 0.00 0.00 0.00 81 1011.5
20260906042005 82 284 0.0 2.0 0.00 0.00 0.00 79 1011.5
20260906041005 83 321 1.0 2.0 0.00 0.00 0.00 76 1011.4
20260906040005 83 3 1.0 3.0 0.00 0.00 0.00 76 1011.3
20260906035005 83 18 2.0 2.0 0.00 0.00 0.00 77 1011.4
20260906034009 83 329 1.0 2.0 0.00 0.00 0.00 77 1011.5
20260906033004 83 291 1.0 3.0 0.00 0.00 0.00 77 1011.5
20260906031004 84 291 1.0 3.0 0.00 0.00 0.00 76 1011.4
20260906025005 84 334 1.0 5.0 0.00 0.00 0.00 75 1011.2
20260906024004 84 342 1.0 3.0 0.00 0.00 0.00 75 1011.0
20260906023005 84 311 2.0 5.0 0.00 0.00 0.00 75 1010.9
20260906022005 84 314 3.0 9.0 0.00 0.00 0.00 75 1010.8
20260906021005 86 260 1.0 6.0 0.00 0.00 0.00 72 1010.5
20260906020005 87 120 0.0 0.0 0.00 0.00 0.00 70 1010.4
20260906015007 87 120 0.0 0.0 0.00 0.00 0.00 68 1010.3
20260906014005 88 120 0.0 0.0 0.00 0.00 0.00 67 1010.1
20260906013004 88 120 0.0 0.0 0.00 0.00 0.00 67 1010.0
20260906012004 89 120 0.0 0.0 0.00 0.00 0.00 66 1009.9
20260906011004 89 120 0.0 0.0 0.00 0.00 0.00 64 1009.8
20260906010004 90 120 0.0 0.0 0.00 0.00 0.00 63 1009.8
20260906005005 90 120 0.0 0.0 0.00 0.00 0.00 62 1009.8
20260906003005 92 120 0.0 0.0 0.00 0.00 0.00 59 1009.4
20260906002004 93 120 0.0 0.0 0.00 0.00 0.00 57 1009.6
20260906001005 94 120 0.0 0.0 0.00 0.00 0.00 56 1009.7
20260906000005 95 120 0.0 0.0 0.00 0.00 0.00 53 1009.7
20260905235005 96 120 1.0 2.0 0.00 0.00 0.00 50 1009.7
20260905234004 97 125 0.0 1.0 0.00 0.00 0.00 49 1009.7
20260905231004 97 96 0.0 5.0 0.00 0.00 0.00 46 1009.4
20260905230005 98 87 1.0 3.0 0.00 0.00 0.00 45 1009.4
20260905224005 99 131 2.0 6.0 0.00 0.00 0.00 43 1009.3
20260905222004 101 54 2.0 7.0 0.00 0.00 0.00 42 1009.4
20260905220005 101 94 2.0 3.0 0.00 0.00 0.00 42 1009.6
20260905215004 101 321 1.0 5.0 0.00 0.00 0.00 41 1009.7
20260905214004 102 139 2.0 6.0 0.00 0.00 0.00 41 1009.7
20260905213005 102 158 3.0 7.0 0.00 0.00 0.00 40 1009.8
20260905212005 103 140 2.0 6.0 0.00 0.00 0.00 40 1009.9
20260905211004 102 85 1.0 5.0 0.00 0.00 0.00 40 1010.0
20260905210004 102 238 3.0 7.0 0.00 0.00 0.00 38 1010.1
20260905204004 103 175 3.0 8.0 0.00 0.00 0.00 39 1010.4
20260905203005 103 59 3.0 9.0 0.00 0.00 0.00 40 1010.4
20260905202004 102 4 1.0 6.0 0.00 0.00 0.00 41 1010.6
20260905201004 103 74 3.0 7.0 0.00 0.00 0.00 40 1010.8
20260905200004 103 43 4.0 8.0 0.00 0.00 0.00 40 1010.8
20260905195005 103 135 2.0 8.0 0.00 0.00 0.00 40 1011.0
20260905194005 103 177 2.0 7.0 0.00 0.00 0.00 41 1011.2
20260905193005 102 95 3.0 8.0 0.00 0.00 0.00 41 1011.4
20260905192005 103 61 3.0 8.0 0.00 0.00 0.00 40 1011.4
20260905191004 104 141 2.0 8.0 0.00 0.00 0.00 39 1011.6
20260905190007 104 5 2.0 6.0 0.00 0.00 0.00 40 1011.8
20260905185004 103 278 3.0 7.0 0.00 0.00 0.00 40 1011.9
20260905184004 103 137 3.0 7.0 0.00 0.00 0.00 41 1012.0
20260905183004 103 48 2.0 8.0 0.00 0.00 0.00 41 1012.1
20260905182004 103 95 2.0 9.0 0.00 0.00 0.00 41 1012.3
20260905181004 102 147 5.0 9.0 0.00 0.00 0.00 42 1012.4
20260905180004 99 322 2.0 9.0 0.00 0.00 0.00 42 1012.6
20260905175005 101 283 4.0 8.0 0.00 0.00 0.00 41 1012.7
20260905173004 102 220 3.0 8.0 0.00 0.00 0.00 42 1012.9
20260905172004 102 125 2.0 7.0 0.00 0.00 0.00 43 1012.9
20260905170004 103 118 3.0 8.0 0.00 0.00 0.00 42 1013.1
20260905165004 102 94 5.0 8.0 0.00 0.00 0.00 45 1013.3
20260905164004 102 113 2.0 6.0 0.00 0.00 0.00 45 1013.4
20260905163005 101 108 2.0 7.0 0.00 0.00 0.00 47 1013.6
20260905162004 101 157 2.0 6.0 0.00 0.00 0.00 49 1013.6
20260905161004 99 110 2.0 6.0 0.00 0.00 0.00 51 1013.8
20260905160004 100 149 1.0 5.0 0.00 0.00 0.00 50 1013.9
20260905155004 99 175 2.0 6.0 0.00 0.00 0.00 52 1013.9
20260905154005 99 156 3.0 6.0 0.00 0.00 0.00 52 1014.0
20260905153005 98 107 2.0 5.0 0.00 0.00 0.00 53 1014.0
20260905152005 97 128 3.0 6.0 0.00 0.00 0.00 54 1014.0
20260905151005 96 178 2.0 6.0 0.00 0.00 0.00 57 1014.0
20260905145005 94 213 0.0 5.0 0.00 0.00 0.00 59 1014.0
20260905144005 94 146 2.0 6.0 0.00 0.00 0.00 58 1014.0
20260905143006 95 35 0.0 3.0 0.00 0.00 0.00 58 1013.9
20260905142005 92 68 1.0 2.0 0.00 0.00 0.00 62 1014.0
20260905140005 90 137 0.0 3.0 0.00 0.00 0.00 64 1014.2
20260905135005 90 295 1.0 2.0 0.00 0.00 0.00 65 1014.3
20260905134007 89 292 1.0 2.0 0.00 0.00 0.00 66 1014.4
20260905133005 88 313 0.0 1.0 0.00 0.00 0.00 69 1014.4
20260905132005 86 295 0.0 0.0 0.00 0.00 0.00 72 1014.5
20260905131005 85 295 0.0 0.0 0.00 0.00 0.00 76 1014.4
20260905130005 83 295 0.0 0.0 0.00 0.00 0.00 79 1014.4
20260905125005 82 295 0.0 0.0 0.00 0.00 0.00 81 1014.4
20260905124005 80 295 0.0 0.0 0.00 0.00 0.00 86 1014.4
20260905123005 78 295 0.0 0.0 0.00 0.00 0.00 92 1014.4
20260905122005 75 295 0.0 0.0 0.00 0.00 0.00 97 1014.3
20260905121005 73 295 0.0 0.0 0.00 0.00 0.00 99 1014.3